FW1340 Weather Reports


time (UTC)temp
C
wind
direction
speed
KPH
gust
KPH
rain 1hr
cm
rain 24hr
cm
rain mn
cm
humidity
%
barometer
mb
20260510061505 17 256 0.0 0.0 0.00 0.00 0.00 68 1012.3
20260510060014 18 263 0.0 0.0 0.00 0.00 0.00 67 1012.4
20260510054502 18 306 0.0 0.0 0.00 0.00 0.00 67 1012.4
20260510053001 18 270 0.0 0.0 0.00 0.00 0.00 67 1012.1
20260510051501 18 255 0.0 0.0 0.00 0.00 0.00 66 1012.0
20260510050112 19 263 0.0 0.0 0.00 0.00 0.00 66 1012.1
20260510050001 19 258 0.0 0.0 0.00 0.00 0.00 66 1012.0
20260510044611 19 281 0.0 0.0 0.00 0.00 0.00 66 1011.9
20260510043100 20 265 0.0 0.0 0.00 0.00 0.00 66 1011.8
20260510041607 20 257 0.0 0.0 0.00 0.00 0.00 66 1011.8
20260510040059 20 250 0.0 0.0 0.00 0.00 0.00 65 1011.6
20260510034605 21 246 0.0 0.0 0.00 0.00 0.00 63 1011.5
20260510033057 22 245 0.0 0.0 0.00 0.00 0.00 59 1011.3
20260510031606 22 281 0.0 0.0 0.00 0.00 0.00 56 1011.1
20260510030103 23 244 0.0 0.0 0.00 0.00 0.00 56 1011.0
20260510024555 25 240 0.0 0.0 0.00 0.00 0.00 57 1010.9
20260510023053 25 257 0.0 0.0 0.00 0.00 0.00 53 1010.8
20260510021552 26 269 0.0 0.0 0.00 0.00 0.00 52 1010.8
20260510020052 26 259 0.0 0.0 0.00 0.00 0.00 51 1010.9
20260510014551 27 260 0.0 0.0 0.00 0.00 0.00 50 1010.9
20260510013054 27 257 0.0 0.0 0.00 0.00 0.00 49 1010.9
20260510011550 28 269 0.0 0.0 0.00 0.00 0.00 48 1010.9
20260510010049 28 279 0.0 0.0 0.00 0.00 0.00 48 1010.9
20260510004549 29 272 0.0 0.0 0.00 0.00 0.00 46 1010.9
20260510003056 30 279 0.0 0.0 0.00 0.00 0.00 44 1010.9
20260510001550 30 251 0.0 0.0 0.00 0.00 0.00 42 1010.9
20260510000046 31 296 0.0 0.0 0.00 0.00 0.00 43 1010.9
20260509234600 31 273 0.0 0.0 0.00 0.00 0.00 43 1011.0
20260509233053 31 250 0.0 0.0 0.00 0.00 0.00 41 1011.2
20260509231601 31 220 0.0 0.0 0.00 0.00 0.00 41 1011.2
20260509230039 31 273 0.0 0.0 0.00 0.00 0.00 41 1011.3
20260509224537 31 246 0.0 0.0 0.00 0.00 0.00 42 1011.5
20260509223037 31 271 0.0 0.0 0.00 0.00 0.00 43 1011.7
20260509221532 31 300 0.0 0.0 0.00 0.00 0.00 44 1011.9
20260509220034 30 286 0.0 0.0 0.00 0.00 0.00 43 1011.9
20260509214529 30 284 0.0 0.0 0.00 0.00 0.00 46 1012.0
20260509213026 30 277 0.0 0.0 0.00 0.00 0.00 46 1012.2
20260509211523 30 276 0.0 0.0 0.00 0.00 0.00 47 1012.4
20260509210023 29 340 0.0 0.0 0.00 0.00 0.00 46 1012.6
20260509204515 28 331 0.0 0.0 0.00 0.00 0.00 49 1012.7
20260509203011 28 261 0.0 0.0 0.00 0.00 0.00 51 1012.9
20260509201507 27 238 0.0 0.0 0.00 0.00 0.00 54 1013.0
20260509200003 27 360 0.0 0.0 0.00 0.00 0.00 53 1013.2
20260509194600 27 287 0.0 0.0 0.00 0.00 0.00 54 1013.4
20260509193100 26 281 0.0 0.0 0.00 0.00 0.00 56 1013.5
20260509191556 26 314 0.0 0.0 0.00 0.00 0.00 56 1013.7
20260509190057 26 314 0.0 0.0 0.00 0.00 0.00 60 1014.0
20260509184547 25 330 0.0 0.0 0.00 0.00 0.00 60 1014.2
20260509183041 25 321 0.0 0.0 0.00 0.00 0.00 62 1014.2
20260509181537 24 273 0.0 0.0 0.00 0.00 0.00 62 1014.3
20260509180032 23 334 0.0 0.0 0.00 0.00 0.00 63 1014.5
20260509174529 22 266 0.0 0.0 0.00 0.00 0.00 64 1014.6
20260509173029 22 252 0.0 0.0 0.00 0.00 0.00 65 1014.4
20260509171530 21 342 0.0 0.0 0.00 0.00 0.00 65 1014.6
20260509170019 21 313 0.0 0.0 0.00 0.00 0.00 66 1014.6
20260509164514 21 323 0.0 0.0 0.00 0.00 0.00 67 1014.7
20260509163016 20 310 0.0 0.0 0.00 0.00 0.00 67 1014.7
20260509161510 20 252 0.0 0.0 0.00 0.00 0.00 67 1014.7
20260509160002 19 236 0.0 0.0 0.00 0.00 0.00 68 1014.6
20260509154608 18 93 0.0 0.0 0.00 0.00 0.00 71 1014.6
20260509153054 18 118 0.0 0.0 0.00 0.00 0.00 74 1014.7
20260509151552 17 129 0.0 0.0 0.00 0.00 0.00 78 1014.6
20260509150057 16 96 0.0 0.0 0.00 0.00 0.00 84 1014.8
20260509144544 15 128 0.0 0.0 0.00 0.00 0.00 86 1014.8
20260509143047 14 132 0.0 0.0 0.00 0.00 0.00 90 1014.8
20260509141536 13 98 0.0 0.0 0.00 0.00 0.00 92 1014.8
20260509140031 12 94 0.0 0.0 0.00 0.00 0.00 93 1014.7
20260509134526 11 5 0.0 0.0 0.00 0.00 0.00 92 1014.6
20260509133023 11 317 0.0 0.0 0.00 0.00 0.00 91 1014.5
20260509131519 11 317 0.0 0.0 0.00 0.00 0.00 90 1014.4
20260509130018 11 317 0.0 0.0 0.00 0.00 0.00 89 1014.1
20260509124515 11 317 0.0 0.0 0.00 0.00 0.00 90 1014.0
20260509123014 11 317 0.0 0.0 0.00 0.00 0.00 90 1014.0
20260509121517 11 317 0.0 0.0 0.00 0.00 0.00 90 1014.1
20260509120013 11 317 0.0 0.0 0.00 0.00 0.00 89 1014.0
20260509114529 11 338 0.0 0.0 0.00 0.00 0.00 89 1014.0
20260509113011 12 338 0.0 0.0 0.00 0.00 0.00 89 1014.2
20260509111509 12 338 0.0 0.0 0.00 0.00 0.00 88 1014.0
20260509110006 12 271 0.0 0.0 0.00 0.00 0.00 88 1013.9
20260509104505 12 271 0.0 0.0 0.00 0.00 0.00 88 1014.1
20260509103004 12 271 0.0 0.0 0.00 0.00 0.00 87 1014.0
20260509101504 12 271 0.0 0.0 0.00 0.00 0.00 86 1014.2
20260509100059 12 271 0.0 0.0 0.00 0.00 0.00 86 1014.3
20260509094603 12 271 0.0 0.0 0.00 0.00 0.00 86 1014.4
20260509093056 13 271 0.0 0.0 0.00 0.00 0.00 85 1014.3
20260509091559 13 271 0.0 0.0 0.00 0.00 0.00 84 1014.3
20260509090106 13 271 0.0 0.0 0.00 0.00 0.00 85 1014.3
20260509084550 13 271 0.0 0.0 0.00 0.00 0.00 84 1014.4
20260509083053 13 271 0.0 0.0 0.00 0.00 0.00 84 1014.5
20260509081546 14 271 0.0 0.0 0.00 0.00 0.00 83 1014.6
20260509080103 14 271 0.0 0.0 0.00 0.00 0.00 83 1014.6
20260509074543 14 271 0.0 0.0 0.00 0.00 0.00 83 1014.6
20260509073040 15 271 0.0 0.0 0.00 0.00 0.00 81 1014.7
20260509071537 15 271 0.0 0.0 0.00 0.00 0.00 80 1014.6
20260509070038 15 271 0.0 0.0 0.00 0.00 0.00 80 1014.5
20260509064534 15 271 0.0 0.0 0.00 0.00 0.00 79 1014.6
20260509063034 16 271 0.0 0.0 0.00 0.00 0.00 77 1014.6